When you browse on this site, cookies collect data to enhance your experience and personalize the content and advertising you see.
Visit our Privacy Policy to learn more. By continuing to use the site, you agree to this use of cookies and data.
EN

Hourly Weather Ashkelon

Today, 11 August, Tuesday

Time Temperature Precipitation Wind Pressure Humidity
00:00 +24°C° 0 mm 1 mps 754 mmHg 85%
01:00 +24°C° 0 mm 1 mps 754 mmHg 86%
02:00 +24°C° 0 mm 1 mps 753 mmHg 87%
03:00 +24°C° 0 mm 2 mps 753 mmHg 86%
04:00 +24°C° 0 mm 2 mps 754 mmHg 86%
05:00 +24°C° 0 mm 2 mps 754 mmHg 86%
06:00 +26°C° 0 mm 3 mps 754 mmHg 78%
07:00 +27°C° 0 mm 3 mps 754 mmHg 71%
08:00 +29°C° 0 mm 3 mps 754 mmHg 63%
09:00 +30°C° 0 mm 3 mps 754 mmHg 58%
10:00 +32°C° 0 mm 4 mps 754 mmHg 54%
11:00 +33°C° 0 mm 4 mps 754 mmHg 50%
12:00 +33°C° 0 mm 5 mps 754 mmHg 49%
13:00 +34°C° 0 mm 5 mps 753 mmHg 49%
14:00 +33°C° 0 mm 5 mps 753 mmHg 50%
15:00 +33°C° 0 mm 5 mps 753 mmHg 53%
16:00 +32°C° 0 mm 5 mps 753 mmHg 57%
17:00 +30°C° 0 mm 5 mps 753 mmHg 60%
18:00 +29°C° 0 mm 4 mps 753 mmHg 66%
19:00 +27°C° 0 mm 3 mps 754 mmHg 72%
20:00 +26°C° 0 mm 2 mps 754 mmHg 78%
21:00 +25°C° 0 mm 2 mps 754 mmHg 80%
22:00 +25°C° 0 mm 1 mps 754 mmHg 83%
23:00 +24°C° 0 mm 1 mps 754 mmHg 85%

Tomorrow, 12 August, Wednesday

Time Temperature Precipitation Wind Pressure Humidity
00:00 +25°C° 0 mm 1 mps 753 mmHg 83%
01:00 +25°C° 0 mm 1 mps 753 mmHg 81%
02:00 +25°C° 0 mm 2 mps 753 mmHg 79%
03:00 +26°C° 0 mm 2 mps 753 mmHg 78%
04:00 +26°C° 0 mm 2 mps 753 mmHg 77%
05:00 +26°C° 0 mm 2 mps 753 mmHg 76%
06:00 +27°C° 0 mm 2 mps 753 mmHg 70%
07:00 +29°C° 0 mm 2 mps 753 mmHg 63%
08:00 +30°C° 0 mm 2 mps 753 mmHg 57%
09:00 +31°C° 0 mm 3 mps 753 mmHg 53%
10:00 +33°C° 0 mm 4 mps 753 mmHg 49%
11:00 +34°C° 0 mm 4 mps 753 mmHg 46%
12:00 +34°C° 0 mm 5 mps 753 mmHg 47%
13:00 +34°C° 0 mm 5 mps 752 mmHg 49%
14:00 +34°C° 0 mm 5 mps 752 mmHg 50%
15:00 +33°C° 0 mm 5 mps 752 mmHg 53%
16:00 +33°C° 0 mm 5 mps 752 mmHg 57%
17:00 +32°C° 0 mm 5 mps 752 mmHg 60%
18:00 +30°C° 0 mm 4 mps 752 mmHg 68%
19:00 +28°C° 0 mm 3 mps 753 mmHg 76%
20:00 +27°C° 0 mm 2 mps 753 mmHg 84%
21:00 +26°C° 0 mm 2 mps 753 mmHg 86%
22:00 +26°C° 0 mm 1 mps 753 mmHg 88%
23:00 +25°C° 0 mm 1 mps 753 mmHg 90%

Day after tomorrow, 13 August, Thursday

Time Temperature Precipitation Wind Pressure Humidity
00:00 +25°C° 0 mm 1 mps 752 mmHg 90%
01:00 +25°C° 0 mm 1 mps 752 mmHg 90%
02:00 +24°C° 0 mm 1 mps 752 mmHg 91%
03:00 +24°C° 0 mm 1 mps 752 mmHg 91%
04:00 +25°C° 0 mm 2 mps 752 mmHg 91%
05:00 +25°C° 0 mm 2 mps 752 mmHg 91%
06:00 +26°C° 0 mm 2 mps 752 mmHg 84%
07:00 +28°C° 0 mm 2 mps 752 mmHg 76%
08:00 +30°C° 0 mm 2 mps 752 mmHg 69%
09:00 +31°C° 0 mm 3 mps 752 mmHg 62%
10:00 +34°C° 0 mm 4 mps 752 mmHg 55%
11:00 +35°C° 0 mm 4 mps 752 mmHg 48%
12:00 +35°C° 0 mm 5 mps 751 mmHg 49%
13:00 +35°C° 0 mm 5 mps 751 mmHg 50%
14:00 +35°C° 0 mm 6 mps 750 mmHg 51%
15:00 +34°C° 0 mm 5 mps 750 mmHg 54%
16:00 +33°C° 0 mm 5 mps 750 mmHg 58%
17:00 +33°C° 0 mm 5 mps 750 mmHg 62%
18:00 +30°C° 0 mm 4 mps 750 mmHg 71%
19:00 +28°C° 0 mm 3 mps 751 mmHg 79%
20:00 +27°C° 0 mm 1 mps 751 mmHg 88%
21:00 +26°C° 0 mm 1 mps 751 mmHg 88%
22:00 +25°C° 0 mm 1 mps 751 mmHg 89%
23:00 +25°C° 0 mm 1 mps 751 mmHg 90%

14 August, Friday

Time Temperature Precipitation Wind Pressure Humidity
00:00 +25°C° 0 mm 1 mps 751 mmHg 90%
01:00 +22°C° 0 mm 0 mps 751 mmHg 90%
02:00 +22°C° 0 mm 0 mps 750 mmHg 90%
03:00 +24°C° 0 mm 1 mps 750 mmHg 90%
04:00 +24°C° 0 mm 1 mps 750 mmHg 90%
05:00 +24°C° 0 mm 2 mps 750 mmHg 90%
06:00 +26°C° 0 mm 2 mps 750 mmHg 83%
07:00 +28°C° 0 mm 2 mps 750 mmHg 75%
08:00 +30°C° 0 mm 3 mps 751 mmHg 67%
09:00 +33°C° 0 mm 3 mps 750 mmHg 59%
10:00 +35°C° 0 mm 4 mps 750 mmHg 51%
11:00 +36°C° 0 mm 5 mps 750 mmHg 43%
12:00 +36°C° 0 mm 5 mps 750 mmHg 45%
13:00 +36°C° 0 mm 6 mps 749 mmHg 46%
14:00 +36°C° 0 mm 6 mps 749 mmHg 48%
15:00 +35°C° 0 mm 5 mps 749 mmHg 51%
16:00 +34°C° 0 mm 5 mps 749 mmHg 55%
17:00 +33°C° 0 mm 4 mps 749 mmHg 58%
18:00 +30°C° 0 mm 3 mps 749 mmHg 68%
19:00 +28°C° 0 mm 2 mps 749 mmHg 77%
20:00 +26°C° 0 mm 1 mps 750 mmHg 87%
21:00 +26°C° 0 mm 1 mps 750 mmHg 87%
22:00 +25°C° 0 mm 1 mps 749 mmHg 87%
23:00 +23°C° 0 mm 0 mps 749 mmHg 87%

15 August, Saturday

Time Temperature Precipitation Wind Pressure Humidity
00:00 +22°C° 0 mm 0 mps 749 mmHg 88%
01:00 +24°C° 0 mm 1 mps 749 mmHg 88%
02:00 +24°C° 0 mm 1 mps 749 mmHg 89%
03:00 +24°C° 0 mm 1 mps 749 mmHg 89%
04:00 +24°C° 0 mm 1 mps 749 mmHg 89%
05:00 +24°C° 0 mm 2 mps 749 mmHg 89%
06:00 +26°C° 0 mm 2 mps 749 mmHg 80%
07:00 +28°C° 0 mm 3 mps 749 mmHg 70%
08:00 +31°C° 0 mm 3 mps 750 mmHg 61%
09:00 +34°C° 0 mm 4 mps 750 mmHg 53%
10:00 +35°C° 0 mm 4 mps 749 mmHg 45%
11:00 +37°C° 0 mm 5 mps 749 mmHg 37%
12:00 +37°C° 0 mm 5 mps 749 mmHg 39%
13:00 +38°C° 0 mm 6 mps 749 mmHg 40%
14:00 +38°C° 0 mm 6 mps 749 mmHg 41%
15:00 +36°C° 0 mm 6 mps 749 mmHg 45%
16:00 +35°C° 0 mm 5 mps 748 mmHg 49%
17:00 +34°C° 0 mm 5 mps 748 mmHg 53%
18:00 +32°C° 0 mm 4 mps 748 mmHg 63%
19:00 +29°C° 0 mm 3 mps 749 mmHg 74%
20:00 +27°C° 0 mm 2 mps 749 mmHg 84%
21:00 +26°C° 0 mm 2 mps 749 mmHg 85%
22:00 +25°C° 0 mm 1 mps 749 mmHg 85%
23:00 +23°C° 0 mm 0 mps 749 mmHg 86%

16 August, Sunday

Time Temperature Precipitation Wind Pressure Humidity
00:00 +24°C° 0 mm 1 mps 749 mmHg 86%
01:00 +24°C° 0 mm 1 mps 749 mmHg 86%
02:00 +24°C° 0 mm 1 mps 749 mmHg 86%
03:00 +24°C° 0 mm 2 mps 749 mmHg 87%
04:00 +24°C° 0 mm 2 mps 749 mmHg 88%
05:00 +24°C° 0 mm 2 mps 749 mmHg 88%
06:00 +26°C° 0 mm 2 mps 749 mmHg 80%
07:00 +28°C° 0 mm 3 mps 750 mmHg 72%
08:00 +30°C° 0 mm 3 mps 750 mmHg 63%
09:00 +33°C° 0 mm 4 mps 750 mmHg 55%
10:00 +35°C° 0 mm 4 mps 750 mmHg 46%
11:00 +37°C° 0 mm 5 mps 750 mmHg 37%
12:00 +37°C° 0 mm 5 mps 750 mmHg 39%
13:00 +37°C° 0 mm 5 mps 749 mmHg 40%
14:00 +38°C° 0 mm 6 mps 749 mmHg 41%
15:00 +36°C° 0 mm 5 mps 749 mmHg 45%
16:00 +35°C° 0 mm 5 mps 749 mmHg 49%
17:00 +34°C° 0 mm 4 mps 749 mmHg 53%
18:00 +32°C° 0 mm 4 mps 749 mmHg 63%
19:00 +28°C° 0 mm 3 mps 750 mmHg 73%
20:00 +26°C° 0 mm 2 mps 750 mmHg 84%
21:00 +26°C° 0 mm 2 mps 750 mmHg 82%
22:00 +25°C° 0 mm 2 mps 750 mmHg 81%
23:00 +25°C° 0 mm 1 mps 750 mmHg 80%
Show more